Tracking 19562 objects as of 24-Mar-2019
HD Live streaming from Space Station
objects crossing your sky now

SUPERVIEW-1 04

Track SUPERVIEW-1 04 now!
10-day predictions


NORAD ID: 43100
Int'l Code: 2018-002B
Perigee: 522.1 km
Apogee: 538.0 km
Inclination: 97.5 °
Period: 95.1 minutes
Semi major axis: 6901 km
RCS: Unknown
Launch date: January 9, 2018
Source: People's Republic of China (PRC)
Launch site: Taiyaun Space Center, China (TSC)
aabbcc
Your satellite tracking list
Your tracking list is empty




NASA's NSSDC Master Catalog

Two Line Element Set (TLE):
1 43100U 18002B   19082.81252762  .00000690  00000-0  41222-4 0  9992
2 43100  97.5400 162.0820 0011518 229.5424 247.4306 15.14355635 66374
Source of the keplerian elements: AFSPC